Volver al catálogo

STARLINK-37886

ActivoComunicacionesVLEO
NORAD 69943·PAYLOAD·🇺🇸 United States

Lanzado Jul 9, 2026 desde Cape Canaveral Space Force Station

Loading…

Próximos Pases (próximas 24 horas)

TLE

ActualizadoSource: CelesTrak SupGP

Época: Sep 14, 2026, 22:35 UTC

1 69943C 26157A   26257.94145833 -.00008912  00000+0 -26329-3 0  2574
2 69943  53.1594 359.3788 0001326  74.2150 300.0384 15.34395324    12

Sigue STARLINK-37886 en tiempo real con AllMySat

Download on the App Store